QPF
0.00 0.00 0.00 0.00 0.00 0.00 0.00 0.00 0.00 0.00 0.00 0.00 0.00 0.00 0.02 0.03 0.00 0.00 0.00 0.00 0.00 0.00 0.01 0.03 0.03 0.03 0.00 0.01 0.06 0.05 0.09 0.04
0.00 0.00 0.00 0.00 0.00 0.00 0.00 0.00 0.00 0.00 0.00 0.00 0.00 0.01 0.02 0.05 0.00 0.00 0.00 0.00 0.00 0.00 0.01 0.01 0.01 0.01 0.01 0.09 0.03 0.00 0.01 0.02
0.00 0.00 0.00 0.00 0.00 0.00 0.00 0.00 0.00 0.00 0.00 0.00 0.00 0.01 0.03 0.05 0.02 0.00 0.00 0.00 0.00 0.00 0.00 0.01 0.00 0.04 0.13 0.12 0.07 0.00 0.01 0.00
0.00 0.00 0.00 0.00 0.00 0.00 0.00 0.00 0.00 0.00 0.00 0.00 0.00 0.01 0.01 0.01 0.01 0.00 0.00 0.00 0.00 0.00 0.00 0.00 0.01 0.03 0.23 0.09 0.02 0.00 0.00 0.00
0.00 0.00 0.00 0.00 0.00 0.00 0.00 0.00 0.00 0.00 0.00 0.00 0.00 0.00 0.02 0.02 0.01 0.02 0.01 0.00 0.00 0.00 0.00 0.01 0.11 0.07 0.23 0.17 0.06 0.01 0.00 0.00
0.00 0.00 0.00 0.00 0.00 0.00 0.00 0.00 0.00 0.00 0.00 0.00 0.00 0.00 0.00 0.01 0.00 0.01 0.00 0.01 0.00 0.00 0.03 0.12 0.12 0.08 0.06 0.04 0.01 0.00 0.00 0.00
0.00 0.00 0.00 0.00 0.00 0.00 0.00 0.00 0.00 0.00 0.00 0.00 0.00 0.00 0.00 0.00 0.00 0.01 0.04 0.12 0.07 0.01 0.08 0.25 0.27 0.14 0.08 0.04 0.00 0.00 0.00 0.00
0.00 0.00 0.00 0.00 0.00 0.00 0.01 0.00 0.00 0.00 0.00 0.00 0.00 0.00 0.00 0.00 0.00 0.00 0.04 0.23 0.23 0.13 0.06 0.07 0.08 0.10 0.12 0.05 0.02 0.00 0.00 0.00
0.00 0.00 0.00 0.00 0.00 0.00 0.00 0.00 0.01 0.00 0.00 0.00 0.00 0.00 0.00 0.00 0.00 0.00 0.02 0.14 0.23 0.28 0.21 0.12 0.07 0.08 0.11 0.07 0.01 0.00 0.00 0.00
0.00 0.00 0.00 0.00 0.00 0.00 0.00 0.00 0.01 0.01 0.00 0.00 0.00 0.00 0.00 0.00 0.00 0.00 0.10 0.20 0.21 0.22 0.23 0.22 0.10 0.07 0.08 0.03 0.00 0.00 0.00 0.00
0.00 0.00 0.00 0.00 0.00 0.00 0.00 0.00 0.01 0.01 0.00 0.00 0.00 0.00 0.00 0.00 0.00 0.02 0.13 0.21 0.21 0.16 0.14 0.09 0.05 0.05 0.05 0.02 0.01 0.00 0.00 0.00
0.00 0.00 0.00 0.00 0.00 0.01 0.02 0.03 0.01 0.00 0.00 0.00 0.00 0.00 0.00 0.01 0.05 0.05 0.09 0.14 0.09 0.05 0.06 0.05 0.03 0.03 0.01 0.01 0.00 0.00 0.00 0.00
0.02 0.01 0.00 0.00 0.01 0.01 0.02 0.04 0.01 0.00 0.00 0.01 0.03 0.02 0.01 0.01 0.02 0.05 0.08 0.07 0.08 0.06 0.04 0.03 0.04 0.01 0.01 0.03 0.00 0.00 0.00 0.00
0.03 0.01 0.01 0.01 0.03 0.04 0.04 0.05 0.01 0.00 0.00 0.02 0.04 0.02 0.03 0.03 0.08 0.13 0.06 0.06 0.07 0.10 0.07 0.04 0.05 0.07 0.05 0.01 0.00 0.00 0.00 0.00
0.02 0.00 0.00 0.00 0.01 0.01 0.00 0.00 0.00 0.00 0.01 0.01 0.02 0.03 0.05 0.03 0.04 0.04 0.04 0.05 0.07 0.09 0.07 0.08 0.08 0.06 0.05 0.00 0.00 0.00 0.00 0.00
0.02 0.01 0.00 0.00 0.00 0.00 0.00 0.00 0.00 0.00 0.04 0.13 0.08 0.02 0.03 0.03 0.03 0.03 0.04 0.05 0.06 0.06 0.05 0.06 0.05 0.03 0.01 0.00 0.00 0.00 0.00 0.00
0.02 0.00 0.01 0.00 0.00 0.00 0.00 0.00 0.00 0.00 0.01 0.07 0.14 0.09 0.06 0.04 0.04 0.04 0.03 0.04 0.04 0.04 0.03 0.04 0.02 0.00 0.00 0.00 0.00 0.00 0.00 0.00
0.06 0.03 0.04 0.01 0.00 0.00 0.00 0.00 0.00 0.00 0.03 0.07 0.05 0.04 0.05 0.04 0.03 0.04 0.04 0.03 0.02 0.01 0.02 0.01 0.00 0.00 0.00 0.00 0.00 0.00 0.00 0.00
0.06 0.06 0.05 0.03 0.00 0.00 0.00 0.00 0.00 0.00 0.00 0.02 0.03 0.04 0.03 0.02 0.02 0.02 0.03 0.04 0.02 0.02 0.01 0.00 0.00 0.00 0.00 0.00 0.00 0.00 0.00 0.00
MSLP
1002.06 1001.87 1002.29 1003.27 1004.61 1005.79 1008.07 1009.78 1011.01 1011.04 1010.14 1009.05 1008.11 1008.05 1008.34 1007.63 1007.37 1008.24 1008.53 1009.01 1009.33 1009.85 1010.38 1011.05 1011.58 1011.90 1012.04 1012.36 1012.53 1012.59 1012.76 1013.09
1002.17 1001.99 1001.96 1002.43 1003.64 1006.05 1008.15 1009.89 1011.26 1011.09 1010.29 1009.55 1008.83 1008.35 1008.86 1007.94 1007.92 1008.10 1008.12 1008.67 1009.04 1009.43 1010.08 1010.53 1011.07 1011.78 1012.20 1012.27 1012.27 1012.53 1012.55 1012.75
1003.02 1002.52 1002.59 1002.93 1003.82 1005.78 1007.55 1008.70 1009.91 1010.48 1009.79 1007.68 1007.84 1007.77 1008.33 1008.42 1008.48 1008.47 1008.29 1008.29 1008.61 1008.85 1009.41 1010.07 1010.87 1011.59 1011.99 1012.33 1012.44 1012.74 1012.69 1012.74
1003.40 1002.31 1001.99 1002.39 1002.96 1004.33 1006.73 1008.55 1009.42 1009.21 1008.09 1005.97 1006.57 1007.13 1007.72 1008.09 1008.13 1008.39 1008.39 1007.89 1007.88 1008.43 1009.48 1010.13 1010.96 1011.94 1012.42 1012.53 1012.61 1012.43 1012.47 1012.83
1003.77 1002.94 1002.01 1002.06 1002.79 1003.82 1005.11 1006.76 1008.19 1008.31 1006.69 1005.93 1006.44 1006.93 1006.56 1006.55 1007.31 1007.75 1008.11 1008.05 1008.09 1008.68 1009.40 1010.50 1011.20 1011.87 1011.97 1013.07 1013.12 1012.96 1013.01 1013.25
1004.12 1003.65 1003.01 1002.67 1002.49 1003.27 1004.17 1006.11 1007.05 1006.53 1005.97 1006.25 1006.67 1006.57 1006.68 1006.52 1006.56 1006.77 1007.32 1007.75 1008.51 1008.84 1009.93 1011.23 1011.29 1011.42 1012.51 1013.33 1013.06 1013.21 1013.41 1013.75
1003.42 1003.02 1002.89 1002.54 1002.40 1002.48 1003.72 1004.35 1005.55 1005.22 1006.04 1006.78 1006.48 1006.13 1005.90 1006.57 1007.15 1007.39 1007.47 1007.98 1008.98 1009.26 1010.27 1011.58 1012.47 1012.84 1013.07 1013.46 1013.04 1013.01 1013.42 1013.81
1003.88 1003.24 1002.90 1002.86 1002.61 1002.94 1003.68 1004.06 1004.74 1004.88 1005.33 1005.17 1005.85 1006.57 1006.68 1006.42 1007.09 1007.95 1008.72 1008.63 1008.89 1010.75 1009.62 1009.95 1010.63 1013.56 1013.81 1013.30 1013.07 1012.93 1013.48 1014.01
1004.51 1003.81 1003.73 1003.71 1003.58 1003.39 1003.32 1003.60 1004.79 1005.98 1005.23 1005.56 1006.35 1005.95 1006.01 1006.32 1007.11 1008.25 1008.90 1008.64 1008.37 1010.65 1011.74 1009.89 1011.11 1012.70 1013.96 1013.63 1013.79 1013.50 1013.83 1014.32
1005.41 1004.71 1004.67 1004.09 1004.03 1003.54 1003.97 1004.77 1004.52 1005.66 1005.91 1006.38 1006.28 1006.69 1007.43 1007.80 1008.30 1009.35 1009.17 1009.26 1009.10 1010.12 1012.31 1012.19 1011.49 1012.25 1013.39 1013.54 1013.51 1014.28 1014.65 1014.81
1006.55 1005.92 1005.41 1004.84 1004.83 1005.03 1005.13 1006.40 1006.11 1005.45 1006.37 1006.75 1006.51 1006.63 1007.32 1007.90 1008.41 1009.23 1009.53 1009.67 1010.27 1011.31 1012.89 1012.95 1011.79 1012.29 1013.39 1014.16 1014.41 1014.51 1015.02 1015.29
1007.52 1007.21 1006.44 1006.31 1006.23 1006.00 1006.09 1007.04 1007.17 1006.85 1006.62 1006.84 1006.97 1007.37 1007.74 1006.91 1008.40 1008.82 1009.11 1009.20 1010.08 1011.71 1013.29 1013.75 1012.62 1012.63 1013.29 1014.10 1014.48 1014.99 1015.15 1015.43
1008.18 1007.58 1006.76 1006.16 1006.49 1006.78 1007.26 1008.11 1007.24 1007.09 1006.81 1006.83 1006.70 1006.38 1006.45 1007.07 1007.49 1008.81 1009.62 1009.62 1010.23 1011.60 1012.47 1011.88 1011.52 1012.17 1013.31 1013.79 1014.38 1014.83 1015.17 1015.52
1008.94 1008.16 1007.59 1006.31 1006.72 1006.94 1006.79 1007.07 1006.56 1006.23 1006.60 1006.19 1005.64 1005.28 1005.53 1005.89 1006.51 1008.30 1009.37 1010.55 1010.85 1011.85 1012.35 1011.83 1011.94 1012.64 1013.93 1014.01 1014.34 1014.60 1015.28 1015.63
1010.29 1009.07 1007.33 1006.47 1006.46 1006.85 1006.93 1006.53 1007.02 1006.67 1006.49 1006.61 1006.03 1006.38 1006.35 1006.63 1006.75 1007.66 1009.60 1010.64 1011.09 1011.79 1011.73 1012.49 1012.90 1013.73 1014.21 1014.33 1014.60 1014.77 1015.35 1015.76
1009.87 1008.74 1007.73 1006.72 1006.66 1006.64 1006.66 1005.83 1005.77 1006.56 1006.55 1006.66 1007.05 1007.38 1007.75 1007.87 1008.19 1008.79 1009.99 1010.83 1011.68 1011.98 1012.63 1013.19 1013.65 1013.96 1014.16 1014.63 1014.76 1015.02 1015.47 1015.87
1009.14 1007.78 1007.13 1006.59 1006.61 1006.29 1006.04 1005.70 1005.64 1004.81 1005.37 1005.87 1007.00 1007.65 1008.24 1008.44 1008.92 1009.48 1010.17 1011.23 1011.87 1012.10 1012.63 1013.67 1013.99 1014.10 1014.41 1014.68 1014.79 1015.23 1015.49 1015.77
1008.17 1007.55 1007.60 1007.13 1006.57 1005.94 1005.53 1005.68 1005.37 1005.30 1005.63 1006.01 1006.27 1007.05 1008.03 1008.71 1009.27 1009.97 1010.87 1011.35 1011.92 1012.40 1012.87 1013.66 1013.89 1014.31 1014.31 1014.51 1014.86 1015.26 1015.45 1015.60
1008.12 1007.59 1007.21 1006.71 1006.15 1005.91 1005.83 1005.95 1005.27 1005.03 1005.05 1006.09 1006.71 1007.34 1008.25 1009.25 1009.74 1010.21 1010.84 1011.02 1011.47 1012.17 1012.66 1013.33 1013.53 1013.91 1014.25 1014.47 1014.99 1015.27 1015.22 1015.31
Thickness
5822 5829 5821 5802 5779 5794 5753 5750 5727 5732 5759 5776 5794 5792 5792 5800 5811 5800 5801 5799 5798 5795 5792 5787 5788 5789 5791 5788 5787 5789 5789 5788
5814 5824 5825 5811 5813 5767 5747 5725 5720 5730 5742 5741 5764 5776 5778 5789 5799 5798 5802 5800 5800 5798 5793 5795 5794 5791 5791 5790 5790 5789 5791 5791
5803 5794 5788 5795 5785 5772 5763 5749 5727 5719 5737 5778 5773 5779 5772 5780 5785 5791 5794 5800 5801 5803 5804 5801 5797 5792 5789 5788 5788 5786 5788 5790
5771 5809 5820 5808 5796 5786 5748 5746 5735 5739 5742 5809 5799 5796 5789 5786 5791 5793 5793 5801 5809 5808 5801 5799 5792 5785 5781 5785 5785 5790 5791 5791
5766 5784 5808 5801 5802 5800 5781 5764 5736 5735 5762 5807 5801 5798 5807 5806 5804 5799 5798 5801 5805 5803 5800 5788 5786 5783 5785 5776 5780 5785 5786 5783
5753 5764 5787 5788 5801 5801 5786 5751 5749 5764 5787 5792 5788 5796 5803 5806 5814 5810 5809 5804 5799 5798 5790 5779 5782 5785 5778 5775 5779 5779 5779 5775
5781 5789 5789 5794 5800 5808 5787 5787 5765 5780 5776 5777 5784 5797 5806 5804 5802 5800 5799 5801 5795 5789 5783 5774 5765 5766 5768 5769 5775 5778 5776 5774
5770 5785 5788 5788 5796 5797 5787 5781 5778 5784 5786 5798 5797 5794 5794 5800 5796 5788 5781 5791 5797 5775 5787 5788 5779 5757 5759 5770 5774 5778 5774 5769
5750 5779 5773 5761 5772 5783 5788 5791 5782 5760 5784 5791 5784 5793 5797 5798 5794 5780 5775 5783 5787 5768 5760 5782 5772 5765 5757 5763 5767 5771 5768 5763
5740 5755 5732 5768 5779 5788 5781 5776 5787 5778 5786 5782 5786 5786 5782 5781 5780 5766 5770 5772 5777 5768 5752 5757 5769 5768 5760 5761 5764 5757 5754 5753
5733 5724 5754 5763 5763 5760 5762 5753 5769 5775 5777 5779 5788 5789 5780 5778 5774 5767 5766 5766 5761 5753 5741 5748 5765 5765 5756 5751 5751 5750 5746 5743
5724 5727 5722 5743 5754 5764 5764 5730 5757 5765 5772 5774 5778 5761 5762 5785 5774 5770 5768 5769 5750 5739 5732 5732 5750 5754 5751 5746 5745 5739 5738 5736
5716 5716 5728 5755 5754 5756 5735 5725 5757 5762 5766 5768 5768 5776 5784 5783 5778 5767 5759 5758 5753 5750 5741 5748 5760 5757 5747 5743 5738 5735 5732 5728
5708 5708 5711 5753 5747 5739 5748 5752 5761 5768 5767 5769 5778 5785 5788 5788 5784 5753 5751 5741 5742 5738 5735 5747 5751 5745 5734 5733 5732 5730 5724 5720
5694 5706 5734 5752 5752 5751 5749 5752 5747 5757 5764 5759 5766 5766 5769 5764 5768 5761 5745 5739 5739 5734 5738 5735 5734 5729 5724 5723 5722 5720 5714 5710
5690 5703 5727 5742 5748 5748 5747 5757 5758 5747 5755 5754 5749 5747 5744 5746 5745 5744 5737 5735 5728 5726 5724 5721 5720 5718 5716 5712 5710 5707 5702 5699
5698 5720 5728 5736 5740 5746 5747 5752 5753 5763 5759 5754 5743 5738 5732 5733 5732 5732 5731 5722 5717 5717 5715 5707 5706 5707 5703 5701 5699 5695 5693 5689
5695 5713 5711 5721 5733 5743 5745 5745 5748 5750 5748 5750 5748 5740 5733 5727 5725 5720 5711 5712 5710 5710 5707 5701 5699 5694 5695 5693 5689 5685 5683 5680
5697 5710 5715 5725 5735 5738 5738 5739 5747 5748 5749 5738 5738 5732 5722 5714 5711 5709 5706 5708 5706 5701 5699 5694 5692 5688 5686 5683 5677 5674 5674 5674